Showing default

OPS 7034 (TRANSIT 18), 3133

Orbit data source: Space-Track

OPS 7034 (TRANSIT 18), 3133 is a payload satellite owned by USN NAVAIR (US) in LEO that was launched on Sat, 02 Mar 1968 UTC via an SCOUT A launch vehicle from the Air Force Western Test Range (AFWTR). Payload-class satellites include a variety of spacecraft equipped with specific instruments for various scientific and technological missions. These include communications satellites like Starlink; space stations such as the ISS; scientific satellites like the Hubble; Earth observation satellites from companies like Planet Labs, Umbra, and HawkEye 360; GPS; miniature CubeSats for education and research; and military/defense satellites.

Loading next visibility...
Identifier
3133, 1968-012A
Orbit
LEO
Country
Flag of USUS
Related business
Manufacturer
RCA/East Windsor
Mission
Spacecraft
Bus & Motor
TRANSIT 5, Unknown motor
Mass
60 kg wet, 60 kg dry
Launch date (UTC)
1968-03-02 (58 years ago)
Launch vehicle
SCOUT A
Launch site
Air Force Western Test Range (AFWTR)
Object type
Payload
Rocket body
Debris
Shape & HBR
Unknown
Radar Cross Section
Large (>1 m²)

Expand to show TLE details & history
Last TLE update: 11 hours ago

TLE from 11 hours ago
0 OPS 7034 (TRANSIT 18)
1 03133U 68012A   25308.44286910  .00000146  00000-0  20700-3 0  9992
2 03133  90.0226 273.5406 0071920 282.0972 192.1010 13.51553596564010
Epoch: 2025-11-04T10:37Z
TLE epoch observation values (Epoch: 2025-11-04T10:37:43.890Z)
Latitude
66.05202°
Longitude
-109.77147°
Altitude
1,130.43 km
Speed
7.268 km/s
True Right ascension
06h 14m 21s
True Declination
65° 55' 50"
Sunlit
Object was in daylight at epoch
Visualization orbit readout
Latitude
Unknown
Longitude
Unknown
Altitude
Unknown
Speed
Unknown
Apparent Right ascension
Unknown
Apparent Declination
Unknown
Sunlit
N/A
Visualization observer readout
Local Sidereal Time
17:47:55
Azimuth
Unknown
Elevation
Unknown
Doppler factor
Unknown
Orbital elements
Apogee altitude
1,117.116 km
Perigee altitude
1,010.074 km
Semi-major axis
7,441.732 km
Eccentricity
0.00719
Inclination
90.0226°
RAAN
273.5406°
Arg. of periapsis
282.0972°
True anomaly
191.92974°
Mean anomaly
192.101°
Eccentric anomaly
192.01522°
Mean motion
3.3809 °/min
Orbital period
106.48 mins
BSTAR
0.000207
Loading maneuver chart data...
Computing Atmospheric mass density...
Loading historical data...
Loading historical data...
Loading historical data...
Loading historical data...
Loading historical data...
Loading historical data...
Loading historical data...

Documentation

Showing up to 5 results
|